Hourly Data Report for May 19, 2004

SHERBROOKE A
QUEBEC

45°26'00.000" N
71°41'00.000" W
241.40 m
7028124
71610
YSC

Download Data

Hourly Data (May 2004)
Hourly Data Report for May 19, 2004
TIME
LST
Temp Definition
°C
Dew Point Definition
°C
Rel Hum Definition
%
Precip. Amount Definition
mm

Wind Dir Definition
10's deg

Wind Spd Definition
km/h
Visibility Definition
km
Stn Press Definition
kPa
Hmdx Definition


Wind Chill Definition


Weather Definition


00:00 11.1 7.4 78   33 13 15.0 98.64      
01:00 10.2 7.1 81   30 11 15.0 98.76      
02:00 9.6 6.6 82   31 9 15.0 98.81      
03:00 8.5 5.6 82   30 9 15.0 98.87      
04:00 6.8 5.0 88   30 11 15.0 98.96      
05:00 7.1 5.1 87   30 11 15.0 99.05      
06:00 8.8 5.8 81   30 11 15.0 99.09      
07:00 10.4 5.9 74   31 13 24.1 99.15     Mainly Clear
08:00 12.1 6.1 67   31 17 24.1 99.20     Mainly Clear
09:00 14.2 5.7 57   31 13 24.1 99.23     Mainly Clear
10:00 15.5 6.1 53   29 11 24.1 99.23     Mainly Clear
11:00 17.3 5.1 44   31 20 24.1 99.23     Mainly Clear
12:00 18.0 3.6 38   31 11 24.1 99.22     Mainly Clear
13:00 18.4 5.2 42   26 13 24.1 99.20     Mainly Clear
14:00 19.3 5.9 41   32 19 24.1 99.18     Mainly Clear
15:00 18.6 3.9 38   27 17 24.1 99.16     Clear
16:00 18.9 3.6 36   30 13 24.1 99.17     Clear
17:00 18.6 4.8 40   27 15 15.0 99.18      
18:00 17.6 5.7 46   28 7 15.0 99.20      
19:00 13.9 7.3 64   20 4 15.0 99.23      
20:00 10.0 6.6 79   21 6 15.0 99.30      
21:00 8.2 5.4 82   19 7 15.0 99.33      
22:00 7.3 5.5 88   9 4 15.0 99.40      
23:00 6.1 5.0 93     0 15.0 99.44      

Notes on Data Quality.

Legend

  • E = Estimated
  • M = Missing
  • NA = Not Available*
  • [empty] = Indicates an unobserved value
Date modified: